EW9968 Weather Reports


time (UTC)temp
C
wind
direction
speed
KPH
gust
KPH
rain 1hr
cm
rain 24hr
cm
rain mn
cm
humidity
%
barometer
mb
20260504224559 20 256 0.0 1.6 0.00 0.00 0.00 36 1006.6
20260504223044 21 245 0.0 0.0 0.00 0.00 0.00 36 1006.3
20260504221543 21 258 0.0 0.0 0.00 0.00 0.00 36 1006.5
20260504220051 21 254 0.0 0.0 0.00 0.00 0.00 35 1006.4
20260504214546 21 278 0.0 0.0 0.00 0.00 0.00 37 1006.4
20260504213041 21 247 0.0 3.2 0.00 0.00 0.00 36 1006.5
20260504211542 21 155 3.2 9.7 0.00 0.00 0.00 34 1006.5
20260504210053 22 272 6.4 12.9 0.00 0.00 0.00 34 1006.5
20260504204546 22 205 1.6 12.9 0.00 0.00 0.00 34 1006.5
20260504203042 22 228 0.0 9.7 0.00 0.00 0.00 33 1006.5
20260504201538 22 286 1.6 8.0 0.00 0.00 0.00 33 1006.5
20260504200048 22 232 3.2 12.9 0.00 0.00 0.00 32 1006.4
20260504194535 22 20 3.2 9.7 0.00 0.00 0.00 33 1006.5
20260504193032 22 65 4.8 12.9 0.00 0.00 0.00 31 1006.5
20260504191533 22 267 6.4 16.1 0.00 0.00 0.00 30 1006.5
20260504190029 22 213 3.2 12.9 0.00 0.00 0.00 31 1006.6
20260504184534 22 259 4.8 19.3 0.00 0.00 0.00 31 1006.9
20260504183033 22 76 4.8 17.7 0.00 0.00 0.00 31 1006.9
20260504181524 22 359 3.2 12.9 0.00 0.00 0.00 32 1007.0
20260504180025 22 220 4.8 14.5 0.00 0.00 0.00 30 1007.0
20260504174520 23 207 0.0 8.0 0.00 0.00 0.00 32 1006.9
20260504173016 21 267 4.8 14.5 0.00 0.00 0.00 33 1007.3
20260504171516 21 233 0.0 9.7 0.00 0.00 0.00 33 1007.4
20260504081526 7 21 0.0 0.0 0.00 0.00 0.00 68 1010.1
20260504044536 0 243 0.0 0.0 0.00 0.00 0.00 86 1010.4
20260504043045 0 243 0.0 0.0 0.00 0.00 0.00 85 1010.3
20260504041535 0 245 0.0 0.0 0.00 0.00 0.00 85 1010.3
20260504040030 0 245 0.0 0.0 0.00 0.00 0.00 84 1010.2
20260504034530 1 225 0.0 0.0 0.00 0.00 0.00 83 1010.1
20260504033025 1 226 0.0 0.0 0.00 0.00 0.00 81 1009.8
20260504031526 1 225 0.0 0.0 0.00 0.00 0.00 81 1009.8
20260504030023 1 226 0.0 0.0 0.00 0.00 0.00 79 1009.8
20260504024520 2 226 0.0 0.0 0.00 0.00 0.00 78 1009.7
20260504023017 2 226 0.0 0.0 0.00 0.00 0.00 77 1009.7
20260504021514 2 226 0.0 0.0 0.00 0.00 0.00 75 1009.6
20260504020012 3 226 0.0 0.0 0.00 0.00 0.00 73 1009.6
20260504014510 3 226 0.0 0.0 0.00 0.00 0.00 73 1009.6
20260504013007 4 226 0.0 0.0 0.00 0.00 0.00 70 1009.4
20260504011505 5 226 0.0 0.0 0.00 0.00 0.00 67 1009.2
20260504010006 5 226 0.0 0.0 0.00 0.00 0.00 67 1009.1
20260504004517 6 225 0.0 0.0 0.00 0.00 0.00 65 1008.8
20260504003005 6 225 0.0 0.0 0.00 0.00 0.00 59 1008.7
20260504001514 7 226 0.0 0.0 0.00 0.00 0.00 57 1008.6
20260504000003 8 229 0.0 0.0 0.00 0.00 0.00 54 1008.3
20260503234502 9 229 0.0 0.0 0.00 0.00 0.00 51 1008.3
20260503233001 10 121 0.0 0.0 0.00 0.00 0.00 50 1008.0
20260503231501 10 231 0.0 0.0 0.00 0.00 0.00 47 1008.0
20260503230113 10 105 0.0 0.0 0.00 0.00 0.00 47 1007.7